Voltar ao catálogo

SL-14 DEB

AtivoPO
NORAD 47082·DEBRIS·🇷🇺 Russia

Lançado Aug 15, 1991 de Plesetsk Cosmodrome

Loading…

Próximas Passagens (próximas 24 horas)

TLE

AtualizadoSource: Space-Track

Época: Sep 14, 2026, 07:31 UTC

1 47082U 91056DG  26257.31352269  .00000434  00000-0  11761-2 0  9994
2 47082  82.6148 109.4148 0040688  56.0617 304.4360 13.11963414280362

Acompanhe SL-14 DEB em tempo real com AllMySat

Download on the App Store